Location: *
(40.8148°S, 105.8499°E)
Time: 04:34:00
(UTC+00:00)

Daily predictions for brighter satellites

Satellite Brightness Start Highest point End
(mag) Time Altitude Azimuth Time Altitude Azimuth Time Altitude Azimuth
ATLAS 5 CENTAUR R/B 3.8 09:57:25 10° NNE 10:03:03 25° ENE 10:08:27 10° ESE
STARLINK-76 4.5 10:01:30 10° NNW 10:04:54 31° NE 10:08:21 10° ESE
Cosmos 2123 Rocket 4.1 09:59:51 10° S 10:06:05 61° E 10:12:16 10° NNE
STARLINK-23 4.4 10:03:06 10° NNW 10:06:33 32° NE 10:10:02 10° ESE
STARLINK-71 4.4 10:03:42 10° NNW 10:07:27 37° NE 10:11:15 10° ESE
Cosmos 2228 Rocket 3.1 10:03:02 10° S 10:07:38 70° E 10:12:06 10° NNE
STARLINK-29 4.4 10:05:18 10° SSW 10:08:03 23° SSE 10:10:47 10° E
STARLINK-32 4.4 10:04:40 10° NNW 10:08:08 33° NE 10:11:38 10° ESE
Cosmos 405 3.9 10:06:30 10° SSE 10:09:38 28° ESE 10:12:43 10° NE
STARLINK-40 4.3 10:06:29 10° NNW 10:10:01 35° NE 10:13:34 10° ESE
Cosmos 2237 Rocket 3.3 10:06:30 10° NNE 10:11:00 25° ENE 10:15:31 10° SE
STARLINK-44 4.3 10:07:51 10° NNW 10:11:22 36° NE 10:14:55 10° ESE
STARLINK-1306 4.2 10:08:43 10° WNW 10:12:54 56° SW 10:17:07 10° SE
STARLINK-1299 4.3 10:08:52 10° WNW 10:13:05 51° SSW 10:17:19 10° SE
STARLINK-37 4.1 10:09:46 10° NNW 10:13:24 41° NE 10:17:03 10° ESE
SL-16 R/B 4.5 10:10:04 10° W 10:14:01 19° SW 10:18:01 10° S
CZ-4B R/B 4.0 10:09:30 10° SE 10:14:20 31° E 10:19:12 10° NNE
STARLINK-36 4.2 10:11:03 10° NNW 10:14:37 38° NE 10:18:13 10° ESE
STARLINK-1281 4.1 10:11:20 10° WNW 10:15:28 57° SW 10:19:39 10° SE
H-2A R/B 3.9 10:12:51 10° SE 10:16:05 24° E 10:19:19 10° NNE
STARLINK-68 4.0 10:12:49 10° NNW 10:16:28 44° NE 10:20:07 10° ESE
Cosmos 1743 Rocket 4.2 10:12:10 10° NNW 10:16:30 61° W 10:20:57 10° S
USA 234 4.0 10:10:35 10° SE 10:16:53 48° SSW 10:23:09 10° WNW
ADEOS Rocket 3.7 10:09:34 10° NNE 10:17:07 87° WNW 10:25:03 10° SSW
STARLINK-63 4.0 10:14:30 10° NNW 10:18:09 44° NE 10:21:44 11° ESE
STARLINK-35 4.0 10:15:56 10° NNW 10:19:34 43° NE 10:23:03 11° ESE
Cosmos 1484 Rocket 4.2 10:16:16 10° S 10:19:53 38° WSW 10:23:25 10° NW
STARLINK-1310 4.2 10:16:22 10° WNW 10:20:29 52° SSW 10:24:37 10° SE
STARLINK-51 3.9 10:17:42 10° NNW 10:21:23 45° NE 10:24:49 12° ESE
Cosmos 158 Rocket 4.2 10:17:30 10° N 10:22:28 52° ENE 10:27:39 10° SSE
Okean O Rocket 2.4 10:18:39 10° SSE 10:22:39 31° E 10:26:37 10° NNE
STARLINK-30 3.9 10:19:19 10° NNW 10:23:01 47° NE 10:26:23 12° ESE
Sich 1 3.3 10:18:53 10° NNE 10:23:06 48° E 10:27:25 10° SSE
STARLINK-72 3.8 10:21:08 10° NNW 10:24:51 49° NE 10:28:12 13° ESE
STARLINK-1319 4.3 10:21:23 10° WNW 10:25:27 48° SSW 10:29:33 10° SE
Cosmos 1346 Rocket 2.9 10:22:07 10° NNW 10:26:03 80° W 10:30:06 10° S
SL-16 R/B 4.0 10:25:36 10° ENE 10:27:11 11° E 10:28:17 11° E
Cosmos 2112 Rocket 4.1 10:22:24 10° N 10:27:37 59° ENE 10:32:51 10° SSE
STARLINK-1028 4.3 10:23:51 10° NNW 10:27:47 42° NE 10:31:11 13° ESE
STARLINK-59 3.7 10:24:18 10° NW 10:28:04 55° NE 10:31:18 14° ESE
PSLV R/B 4.0 10:25:13 10° SSE 10:29:26 86° WSW 10:33:31 10° NNW
STARLINK-56 3.7 10:25:57 10° NW 10:29:42 54° NE 10:32:52 14° ESE
Starlink 7 placeholder 2.8 10:26:48 10° SW 10:29:50 78° NW 10:32:42 10° NE
Shenzhou-11 Module 1.5 10:27:17 10° W 10:29:53 73° SSW 10:31:43 17° ESE
STARLINK-1277 4.4 10:26:24 10° WNW 10:30:26 45° SSW 10:34:19 11° SE
STARLINK-73 3.7 10:27:36 10° NW 10:31:23 56° NE 10:34:28 15° ESE
Cosmos 2333 Rocket 2.5 10:25:48 10° NNW 10:31:35 73° WSW 10:37:24 10° SSE
Cosmos 1934 Rocket 4.4 10:26:20 10° NNW 10:32:39 73° W 10:39:07 10° S
STARLINK-1021 4.1 10:28:44 10° NNW 10:32:44 46° NE 10:35:58 15° ESE
STARLINK-38 3.6 10:29:15 10° NW 10:33:02 59° NE 10:36:04 15° ESE
SMAP 4.0 10:29:19 10° SE 10:33:21 27° E 10:37:19 10° NNE
STARLINK-65 3.6 10:30:56 10° NW 10:34:43 61° NE 10:37:42 16° ESE
STARLINK-24 3.6 10:32:33 10° NW 10:36:35 69° NE 10:39:45 16° ESE
STARLINK-25 3.5 10:33:07 10° NW 10:36:49 61° NE 10:39:34 17° ESE
STARLINK-53 3.5 10:33:11 10° NW 10:37:03 68° NE 10:40:02 17° ESE
Cosmos 2278 Rocket 2.6 10:32:01 10° S 10:37:25 40° ESE 10:42:44 10° NE
STARLINK-1019 4.0 10:33:39 10° NNW 10:37:42 51° NE 10:40:45 17° ESE
Cosmos 1844 Rocket 4.1 10:33:04 10° SW 10:38:24 42° WNW 10:43:42 10° N
Meteor 1-10 Rocket 4.2 10:33:10 10° S 10:38:52 78° E 10:44:36 10° NNE
STARLINK-1012 3.9 10:38:34 10° NW 10:42:39 57° NE 10:45:32 19° ESE
Cosmos 1605 Rocket 4.0 10:37:39 10° N 10:43:54 89° E 10:50:09 10° S
STARLINK-52 3.6 10:41:15 10° SW 10:44:20 36° SSE 10:45:57 22° E
SJ-7 4.3 10:40:52 10° SSE 10:44:56 74° ENE 10:48:57 10° N
BREEZE-M DEB (TANK) 3.7 10:41:26 10° SW 10:45:18 66° SSE 11:00:00 10° ENE
BREEZE-M DEB (TANK) 4.5 10:42:50 10° N 10:46:22 30° ENE 10:53:18 16° ESE
YAOGAN 6 3.8 10:46:10 20° ESE 10:47:32 24° E 10:50:37 10° NNE
Cosmos 2360 Rocket 4.3 10:43:53 10° WNW 10:48:16 22° SW 10:52:40 10° S
Cosmos 2056 Rocket 3.8 10:43:50 10° S 10:48:59 45° ESE 10:54:01 10° NE
Cosmos 1666 Rocket 3.5 10:45:46 10° N 10:50:07 65° E 10:54:29 10° SSE
FALCON 9 DEB 4.0 10:48:34 10° SW 10:51:47 32° SSE 10:52:53 26° ESE
Cosmos 1633 Rocket 3.2 10:47:42 10° N 10:52:03 56° E 10:56:28 10° SSE
STARLINK-1026 3.7 10:48:27 10° NW 10:52:36 69° NE 10:55:07 23° ESE
STARLINK-50 3.5 10:48:49 10° NW 10:52:53 88° NE 10:55:25 23° SE
H-2A R/B 4.2 10:49:16 10° S 10:52:57 31° WSW 10:56:30 10° NW
NOAA 6 4.0 10:49:51 10° SSE 10:55:04 88° WSW 11:00:13 10° NNW
CZ-2C R/B 4.1 10:58:14 18° SE 10:58:14 18° SE 11:00:51 10° SSE
STARLINK-1013 3.6 10:53:22 10° NW 10:57:32 76° NE 10:59:51 26° ESE
Cosmos 1818 3.5 10:52:59 10° NNW 10:58:23 77° ENE 11:02:42 16° SE
Cosmos 1862 4.4 10:56:12 10° NNW 11:00:06 47° W 11:04:05 10° S
STARLINK-1009 3.6 10:58:19 10° NW 11:02:31 83° NE 11:04:39 28° SE
SL-4 R/B 2.7 11:02:59 10° WSW 11:06:40 51° NW 11:10:36 10° NE
STARLINK-1015 3.6 11:03:18 10° NW 11:07:30 90° SW 11:09:26 31° SE
Cosmos 1680 Rocket 4.3 11:03:13 10° NW 11:08:24 51° WSW 11:13:34 10° S
Cosmos 2219 Rocket 3.5 11:06:05 10° NW 11:11:20 38° WSW 11:16:40 10° S
STARLINK-1016 3.6 11:08:17 10° NW 11:12:29 83° SW 11:14:13 34° SE
ATLAS 2AS CENTAUR R/B 3.8 11:07:34 10° SSW 11:12:38 23° SE 11:13:30 22° SE
STARLINK-60 4.2 11:12:20 10° WSW 11:15:26 41° NW 11:17:55 14° NNE
Cosmos 1812 3.6 11:12:00 10° SSW 11:15:50 52° W 11:19:36 10° N
STARLINK-81 3.7 11:12:22 10° WNW 11:16:14 63° SW 11:17:38 36° SSE
STARLINK-1008 3.7 11:13:16 10° NW 11:17:27 76° SW 11:19:00 38° SE
STARLINK-54 3.9 11:13:44 10° WNW 11:17:33 55° SW 11:18:55 35° SSE
STARLINK-77 3.8 11:15:09 10° WNW 11:19:00 59° SW 11:20:16 37° SSE
Cosmos 1452 Rocket 4.3 11:14:39 10° S 11:18:42 30° SE 11:18:42 30° SE
Cosmos 1238 Rocket 3.1 11:15:53 10° N 11:20:33 77° W 11:24:03 13° S
Cosmos 2100 Rocket 3.9 11:14:40 10° N 11:20:51 70° E 11:27:03 10° SSE
STARLINK-1014 3.8 11:18:16 10° WNW 11:22:28 70° SW 11:23:50 41° SE
Cosmos 1420 Rocket 4.2 11:17:26 10° S 11:22:38 47° ESE 11:25:33 24° NE
Helios 1A Rocket 2.9 11:21:53 41° SE 11:23:04 59° E 11:27:05 10° N
STARLINK-79 3.9 11:20:02 10° WNW 11:23:50 54° SW 11:24:54 39° SSE
Cosmos 1461 2.6 11:20:16 10° SSW 11:24:15 85° ESE 11:26:04 30° NE
STARLINK-78 4.0 11:21:31 10° WNW 11:25:18 52° SW 11:26:17 40° SSE
Cosmos 1980 3.9 11:20:54 10° NNW 11:26:34 73° WSW 11:31:16 16° SSE
Lacrosse 5 rocket 1.6 11:22:34 10° NNW 11:26:45 53° NE 11:27:19 49° E
STARLINK-57 4.1 11:23:18 10° WNW 11:27:03 48° SSW 11:28:00 39° S
STARLINK-1010 4.0 11:22:55 10° WNW 11:27:10 61° SW 11:28:28 41° SSE
STARLINK-1025 3.9 11:23:17 10° WNW 11:27:26 64° SW 11:28:35 44° SSE
Envisat 2.9 11:22:33 10° SSE 11:27:45 88° ENE 11:32:52 10° NNW
STARLINK-49 4.1 11:24:53 10° WNW 11:28:39 49° SSW 11:29:30 40° S
STARLINK-27 4.1 11:26:19 10° WNW 11:30:02 48° SSW 11:30:48 41° S
STARLINK-74 4.1 11:28:00 10° WNW 11:31:44 46° SSW 11:32:26 41° S
STARLINK-1017 4.0 11:28:15 10° WNW 11:32:23 59° SW 11:33:19 46° SSE
STARLINK-39 4.1 11:29:33 10° WNW 11:33:16 45° SSW 11:33:54 41° S
Meteor 1-20 Rocket 4.2 11:29:03 10° N 11:34:44 67° E 11:39:06 18° SSE
STARLINK-31 4.2 11:31:11 10° WNW 11:34:52 43° SSW 11:35:26 40° S
STARLINK-69 4.3 11:32:58 10° WNW 11:36:35 39° SSW 11:37:06 37° S
STARLINK-1023 4.1 11:33:15 10° WNW 11:37:21 54° SW 11:38:05 47° S
Cosmos 2297 4.5 11:32:30 10° S 11:36:30 32° SSE 11:36:30 32° SSE
STARLINK-21 4.3 11:34:27 10° WNW 11:38:05 41° SSW 11:38:30 39° SSW
Cosmos 2061 Rocket 4.0 11:32:10 10° N 11:38:20 61° E 11:43:27 16° SSE
BREEZE-M DEB (TANK) 4.5 11:18:44 10° NW 11:38:56 68° NNE 11:41:08 42° E
Feng Yun 1-1 Rocket 4.1 11:35:57 27° SSE 11:39:01 70° ENE 11:44:29 10° N
Cosmos 1470 Rocket 3.6 11:34:49 10° N 11:39:20 81° W 11:42:02 24° S
STARLINK-45 4.4 11:36:20 10° W 11:39:55 37° SSW 11:40:17 36° SSW
STARLINK-70 4.4 11:38:00 10° W 11:41:35 37° SSW 11:41:53 36° SSW
STARLINK-1007 4.2 11:38:19 10° WNW 11:42:24 50° SSW 11:42:55 47° S
STARLINK-76 4.4 11:39:26 10° W 11:43:02 38° SSW 11:43:14 37° SSW
STARLINK-29 4.0 11:41:08 10° WSW 11:44:00 45° WNW 11:44:00 45° WNW
STARLINK-23 4.5 11:41:07 10° W 11:44:41 37° SSW 11:44:50 37° SSW
Cosmos 371 Rocket 4.4 11:41:05 10° S 11:43:48 31° S 11:43:48 31° S
Cosmos 1441 Rocket 3.3 11:42:50 10° NNW 11:46:40 78° WNW 11:46:40 78° WNW
STARLINK-1048 4.3 11:43:21 10° WNW 11:47:23 46° SSW 11:47:42 45° SSW
ATLAS 5 CENTAUR R/B 2.8 11:40:14 10° NW 11:47:26 71° SW 11:51:06 30° SSE
Cosmos 2016 Rocket 3.9 11:41:37 10° N 11:47:51 72° E 11:53:37 13° SSE
Cosmos 1864 Rocket 4.4 11:42:45 10° N 11:48:47 60° E 11:50:34 44° SE
Cosmos 2173 Rocket 4.1 11:43:22 10° NNW 11:49:40 76° W 11:55:57 10° S
SL-24 R/B - RUBIN 2 3.8 11:45:17 10° NW 11:50:24 78° WSW 11:51:06 63° S
STARLINK-1049 4.5 11:48:22 10° WNW 11:52:23 43° SSW 11:52:28 43° SSW
Cosmos 1862 Rocket 4.4 11:49:02 10° SSW 11:53:30 53° W 11:57:53 10° N
